Location: ?????
(33.6267°N, 35.4675°E)
Time: 11:32:10
(UTC+00:00)

Cosmos 2369 - Pass Details

Date: 12 November 2019
Orbit: 838 x 858 km, 71.0° (Epoch: 12 December)

Event Time Altitude Azimuth Distance (km) Brightness Sun altitude
Rises 16:06:25 0° 196° (SSW) 3,375 7.2 -18.7°
Reaches altitude 10° 16:08:51 10° 196° (SSW) 2,446 6.4 -19.2°
Maximum altitude 16:14:27 82° 110° (ESE) 855 3.6 -20.3°
Enters shadow 16:18:30 20° 24° (NNE) 1,867 5.2 -21.2°
